• Join FlightAware (Why Join?)
  • Login
  • US Flag GB Flag 
03:09 EDT


 

Airport Tracker/Info


-or-


 

Live Flight TrackerFlight Track Log ✈ N493TM ✈ 08-May-2013 ✈ KHPN - KHUL

Flight Track Log - Related Links

Times and Time Zones

All times are in EDT time to prevent confusion due to time zone crossing. See the N493TM flight status page for this flight to view local times or setup timezone preferences in your user account.

Time Position Orientation Groundspeed Altitude Reporting Facility
EDT Latitude Longitude Course Direction KTS MPH feet Rate Location/Type
08:08 41.0333 -73.7167 298° West 222 255 2,900  Level New York TRACON
08:09 41.0667 -73.8000 298° West 262 302 4,200 2,100 Climbing New York TRACON
08:10 41.1167 -73.8667 315° West 291 335 7,100 2,400 Climbing New York TRACON
08:12 41.2189 -73.7978 27° Northeast 263 303 11,000 1,440 Climbing Boston Center
08:13 41.2472 -73.6825 72° East 280 322 11,500 1,740 Climbing Boston Center
08:14 41.2944 -73.5644 62° Northeast 293 337 14,900 2,580 Climbing Boston Center
08:15 41.3514 -73.4908 44° Northeast 306 352 16,700 1,800 Climbing Boston Center
08:16 41.4211 -73.3950 46° Northeast 317 365 18,600 1,680 Climbing Boston Center
08:17 41.4842 -73.3131 44° Northeast 317 365 20,100 1,200 Climbing Boston Center
08:18 41.5661 -73.2447 32° Northeast 330 380 21,100 960 Climbing Boston Center
08:19 41.6703 -73.2406 North 338 389 22,100 900 Climbing Boston Center
08:20 41.7597 -73.2472 357° North 363 418 22,900 960 Climbing Boston Center
08:21 41.8953 -73.2572 357° North 380 437 24,100 1,140 Climbing Boston Center
08:22 42.0078 -73.2642 357° North 398 458 25,200 1,140 Climbing Boston Center
08:23 42.1181 -73.2742 356° North 398 458 26,400 1,200 Climbing Boston Center
08:24 42.2286 -73.2558 North 399 459 27,600 1,200 Climbing Boston Center
08:25 42.3147 -73.1758 34° Northeast 379 436 28,800 1,200 Climbing Boston Center
08:26 42.3925 -73.0697 45° Northeast 375 432 30,100 1,200 Climbing Boston Center
08:27 42.4742 -72.9664 43° Northeast 386 444 31,200 1,080 Climbing Boston Center
08:28 42.5475 -72.8742 43° Northeast 391 450 32,300 1,080 Climbing Boston Center
08:29 42.6269 -72.7731 43° Northeast 391 450 33,400 1,080 Climbing Boston Center
08:30 42.7067 -72.6689 44° Northeast 396 456 34,500 960 Climbing Boston Center
08:31 42.7900 -72.5647 43° Northeast 396 456 35,400 900 Climbing Boston Center
08:32 42.8672 -72.4628 44° Northeast 390 449 36,400 780 Climbing Boston Center
08:33 42.9444 -72.3606 44° Northeast 390 449 37,000 300 Climbing Boston Center
08:34 43.0256 -72.2497 45° Northeast 395 455 37,000  Level Boston Center
08:35 43.1128 -72.1358 44° Northeast 400 460 37,000  Level Boston Center
08:36 43.1958 -72.0214 45° Northeast 411 473 37,000  Level Boston Center
08:37 43.2828 -71.9039 45° Northeast 417 480 37,000  Level Boston Center
08:38 43.3511 -71.8119 44° Northeast 422 486 37,000  Level Boston Center
08:39 43.4564 -71.6708 44° Northeast 427 491 37,000  Level Boston Center
08:40 43.5431 -71.5522 45° Northeast 427 491 37,000  Level Boston Center
08:41 43.6297 -71.4361 44° Northeast 427 491 37,000  Level Boston Center
08:42 43.7203 -71.3083 46° Northeast 421 484 37,000  Level Boston Center
08:43 43.8044 -71.1944 44° Northeast 421 484 37,000  Level Boston Center
08:44 43.8864 -71.0775 46° Northeast 421 484 37,000  Level Boston Center
08:45 43.9725 -70.9603 44° Northeast 421 484 37,000  Level Boston Center
08:46 44.0564 -70.8425 45° Northeast 421 484 37,000  Level Boston Center
08:47 44.1403 -70.7247 45° Northeast 421 484 37,000  Level Boston Center
08:48 44.2258 -70.6061 45° Northeast 421 484 37,000  Level Boston Center
08:49 44.2972 -70.5056 45° Northeast 421 484 37,000  Level Boston Center
08:50 44.3825 -70.3864 45° Northeast 421 484 37,000  Level Boston Center
08:51 44.4658 -70.2672 46° Northeast 421 484 37,000  Level Boston Center
08:52 44.5492 -70.1506 45° Northeast 421 484 37,000  Level Boston Center
08:53 44.6319 -70.0306 46° Northeast 421 484 37,000  Level Boston Center
08:54 44.7128 -69.9133 46° Northeast 421 484 37,000  Level Boston Center
08:55 44.7978 -69.7925 45° Northeast 421 484 37,000  Level Boston Center
08:56 44.8864 -69.6625 46° Northeast 421 484 37,000  Level Boston Center
08:57 44.9608 -69.5533 46° Northeast 421 484 37,000 -1,260 Level Boston Center
08:58 45.0692 -69.3981 45° Northeast 426 490 34,300 -2,460 Descending Boston Center
08:59 45.1514 -69.2761 46° Northeast 421 484 31,600 -2,700 Descending Boston Center
09:00 45.2314 -69.1567 46° Northeast 421 484 28,900 -13,320 Descending Boston Center
09:01 45.3111 -69.0342 47° Northeast 421 484 5,000 -2,580 Descending Boston Center
09:02 45.3911 -68.9169 46° Northeast 415 478 23,800 8,100 Climbing Boston Center
09:03 45.4686 -68.7997 47° Northeast 410 472 21,200 -2,640 Descending Boston Center
09:04 45.5483 -68.6819 46° Northeast 405 466 18,600 -2,580 Descending Boston Center
09:05 45.6258 -68.5672 46° Northeast 405 466 16,100 -2,400 Descending Boston Center
09:06 45.6972 -68.4583 47° Northeast 388 447 13,800 -2,160 Descending Boston Center
09:07 45.7581 -68.3558 50° Northeast 364 419 11,800 -2,100 Descending Boston Center
09:08 45.8172 -68.2622 48° Northeast 330 380 9,700 -2,100 Descending Boston Center
09:09 45.8706 -68.1778 48° Northeast 299 344 7,600 -2,100 Descending Boston Center
09:10 45.9194 -68.0936 50° Northeast 286 329 5,500 -2,100 Descending Boston Center
09:11 45.9686 -68.0119 49° Northeast 273 314 3,400 -1,380 Descending Boston Center
09:12 46.0117 -67.9431 48° Northeast 253 291 2,800 -720 Descending Boston Center
09:13 46.0386 -67.8811 58° Northeast 215 247 2,000 -660 Descending Boston Center
09:14 46.0622 -67.8461 46° Northeast 179 206 1,500 4,500 Descending Boston Center
09:15 46.0989 -67.7744 54° Northeast 179 206 11,000 9,480 Climbing Boston Center
09:17 46.1167 -67.7833 43° Northeast  Level FlightAware Approximate
09:24 46.1246 -67.7924 43° Northeast  Level Estimated
09:25 46.1246 -67.7924 43° Northeast  Level Estimated
09:26 46.1246 -67.7924 43° Northeast  Level Estimated
09:27 46.1246 -67.7924 43° Northeast  Level Estimated
09:28 46.1246 -67.7924 43° Northeast  Level Estimated
09:29 46.1246 -67.7924 43° Northeast  Level Estimated
09:30 46.1246 -67.7924 43° Northeast  Level Estimated
09:31 46.1246 -67.7924 43° Northeast  Level Estimated